BEIDOU 12 1 38250U 12018A 21110.84146546 -.00000083 00000-0 00000-0 0 9995 2 38250 56.7565 7.5130 0021386 252.0732 295.6992 1.86234320 61212 BEIDOU 13 1 38251U 12018B 21110.27473171 -.00000085 00000-0 00000-0 0 9992 2 38251 56.6794 6.8846 0012413 258.6582 313.5677 1.86234219 61204